2023/01/27 00:00:00,51.6,-1.4
2023/01/27 00:10:00,51.6,-1.7
2023/01/27 00:20:00,51.5,-1.9
2023/01/27 00:30:00,51.3,-2.0
2023/01/27 00:40:00,51.3,-1.8
2023/01/27 00:50:00,51.2,-1.7
2023/01/27 01:00:00,51.1,-1.9
2023/01/27 01:10:00,50.9,-2.0
2023/01/27 01:20:00,50.8,-1.6
2023/01/27 01:30:00,50.7,-1.5
2023/01/27 01:40:00,50.7,-1.5
2023/01/27 01:50:00,50.7,-1.2
2023/01/27 02:00:00,50.7,-1.6
2023/01/27 02:10:00,50.6,-1.7
2023/01/27 02:20:00,50.6,-1.5
2023/01/27 02:30:00,50.5,-1.6
2023/01/27 02:40:00,50.4,-1.7
2023/01/27 02:50:00,50.4,-1.7
2023/01/27 03:00:00,50.3,-1.7
2023/01/27 03:10:00,50.2,-1.4
2023/01/27 03:20:00,50.0,-1.1
2023/01/27 03:30:00,49.8,-1.2
2023/01/27 03:40:00,49.8,-0.9
2023/01/27 03:50:00,49.8,-0.9
2023/01/27 04:00:00,49.8,-1.0
2023/01/27 04:10:00,49.7,-0.9
2023/01/27 04:20:00,49.5,-1.0
2023/01/27 04:30:00,49.6,-1.0
2023/01/27 04:40:00,49.8,-0.9
2023/01/27 04:50:00,50.0,-0.6
2023/01/27 05:00:00,49.9,-0.6
2023/01/27 05:10:00,49.8,-0.6
2023/01/27 05:20:00,49.8,-0.8
2023/01/27 05:30:00,49.8,-0.7
2023/01/27 05:40:00,49.9,-0.7
2023/01/27 05:50:00,50.0,-0.9
2023/01/27 06:00:00,50.0,-0.9
2023/01/27 06:10:00,49.9,-0.7
2023/01/27 06:20:00,49.8,-0.8
2023/01/27 06:30:00,49.8,-0.8
2023/01/27 06:40:00,49.8,-0.8
2023/01/27 06:50:00,49.8,-0.5
2023/01/27 07:00:00,50.0,-0.4
2023/01/27 07:10:00,50.0,-0.3
2023/01/27 07:20:00,50.0,-0.6
2023/01/27 07:30:00,50.1,-0.6
2023/01/27 07:40:00,50.0,-0.7
2023/01/27 07:50:00,50.0,-0.1
2023/01/27 08:00:00,50.1,-0.4
2023/01/27 08:10:00,50.2,-0.2
2023/01/27 08:20:00,50.1,-0.2
2023/01/27 08:30:00,50.2,-0.3
2023/01/27 08:40:00,50.3,-0.2
2023/01/27 08:50:00,50.5,-0.0
2023/01/27 09:00:00,50.5,-0.1
2023/01/27 09:10:00,50.5, 0.1
2023/01/27 09:20:00,50.6, 0.5
2023/01/27 09:30:00,50.6, 0.8
2023/01/27 09:40:00,50.6, 0.5
2023/01/27 09:50:00,50.6, 0.7
2023/01/27 10:00:00,50.8, 0.5
2023/01/27 10:10:00,51.1, 0.5
2023/01/27 10:20:00,51.4, 0.4
2023/01/27 10:30:00,51.5, 0.6
2023/01/27 10:40:00,51.5, 0.2
2023/01/27 10:50:00,51.6, 0.3
2023/01/27 11:00:00,51.6, 0.4
2023/01/27 11:10:00,51.5, 0.6
2023/01/27 11:20:00,51.4, 1.1
2023/01/27 11:30:00,51.2, 0.8
2023/01/27 11:40:00,51.1, 1.3
2023/01/27 11:50:00,50.9, 1.5
2023/01/27 12:00:00,50.9, 1.7
2023/01/27 12:10:00,50.9, 1.2
2023/01/27 12:20:00,50.9, 0.3
2023/01/27 12:30:00,51.0, 0.2
2023/01/27 12:40:00,51.5, 0.3
2023/01/27 12:50:00,51.9, 0.2
2023/01/27 13:00:00,52.1, 0.2
2023/01/27 13:10:00,52.3, 0.5
2023/01/27 13:20:00,52.4, 0.9
2023/01/27 13:30:00,52.4, 0.5
2023/01/27 13:40:00,52.7, 0.6
2023/01/27 13:50:00,52.8, 0.3
2023/01/27 14:00:00,53.0,-0.1
2023/01/27 14:10:00,52.9,-0.2
2023/01/27 14:20:00,52.9,-0.4
2023/01/27 14:30:00,53.3,-0.7
2023/01/27 14:40:00,54.4,-0.4
2023/01/27 14:50:00,54.9,-0.7
2023/01/27 15:10:00,33.8,-1.0
2023/01/27 15:20:00,57.0,-0.9
2023/01/27 15:30:00,58.0,-0.9
2023/01/27 15:40:00,58.3,-1.0
2023/01/27 15:50:00,58.9,-1.3
2023/01/27 16:00:00,59.2,-1.2
2023/01/27 16:10:00,59.4,-1.3
2023/01/27 16:20:00,60.3,-1.7
2023/01/27 16:30:00,60.6,-1.7
2023/01/27 16:40:00,61.3,-1.7
2023/01/27 16:50:00,61.8,-1.9
2023/01/27 17:00:00,62.8,-2.1
2023/01/27 17:10:00,63.5,-2.1
2023/01/27 17:20:00,63.7,-2.3
2023/01/27 17:30:00,63.5,-2.3
2023/01/27 17:40:00,63.3,-2.3
2023/01/27 17:50:00,63.4,-2.6
2023/01/27 18:00:00,63.4,-2.7
2023/01/27 18:10:00,63.3,-2.7
2023/01/27 18:20:00,63.2,-3.1
2023/01/27 18:30:00,62.9,-3.2
2023/01/27 18:40:00,62.8,-3.1
2023/01/27 18:50:00,63.3,-3.0
2023/01/27 19:00:00,63.1,-3.3
2023/01/27 19:10:00,62.8,-3.3
2023/01/27 19:20:00,63.0,-3.2
2023/01/27 19:30:00,63.0,-3.3
2023/01/27 19:40:00,62.9,-3.1
2023/01/27 19:50:00,63.1,-3.2
2023/01/27 20:00:00,63.7,-3.2
2023/01/27 20:10:00,63.6,-3.1
2023/01/27 20:20:00,63.4,-3.2
2023/01/27 20:30:00,63.3,-2.7
2023/01/27 20:40:00,63.2,-3.1
2023/01/27 20:50:00,63.9,-3.3
2023/01/27 21:00:00,63.9,-3.3
2023/01/27 21:10:00,63.9,-3.3
2023/01/27 21:20:00,64.0,-3.4
2023/01/27 21:30:00,63.6,-3.3
2023/01/27 21:40:00,63.6,-3.6
2023/01/27 21:50:00,63.5,-3.6
2023/01/27 22:00:00,63.3,-3.6
2023/01/27 22:10:00,63.1,-3.7
2023/01/27 22:20:00,63.0,-4.1
2023/01/27 22:30:00,62.9,-3.8
2023/01/27 22:40:00,62.7,-3.9
2023/01/27 22:50:00,62.7,-3.6
2023/01/27 23:00:00,63.0,-3.3
2023/01/27 23:10:00,62.8,-3.6
2023/01/27 23:20:00,62.6,-3.4
2023/01/27 23:30:00,62.5,-3.5
2023/01/27 23:40:00,62.3,-3.6
2023/01/27 23:50:00,62.1,-3.6
